When you browse on this site, cookies collect data to enhance your experience and personalize the content and advertising you see.
Visit our Privacy Policy to learn more. By continuing to use the site, you agree to this use of cookies and data.
  • In Romania
  • List of Countries
  • For 7 days
  • Water Temperature
  • Satellite Maps
  • Weather Map
  • Weather Widgets
  • user-avatar
    Login

    Hourly Weather Booué

    Today, 22 January, Tuesday

    Time Temperature Precipitation Wind Pressure Humidity
    00:00 +26°C° 0 mm 1 mps 735 mmHg 87%
    01:00 +25°C° 0 mm 1 mps 735 mmHg 90%
    02:00 +25°C° 0.1 mm 1 mps 735 mmHg 90%
    03:00 +25°C° 0.1 mm 1 mps 734 mmHg 91%
    04:00 +25°C° 0.1 mm 1 mps 734 mmHg 92%
    05:00 +23°C° 0.2 mm 0 mps 734 mmHg 91%
    06:00 +23°C° 0.2 mm 0 mps 735 mmHg 91%
    07:00 +23°C° 0 mm 0 mps 735 mmHg 89%
    08:00 +25°C° 0 mm 0 mps 735 mmHg 81%
    09:00 +29°C° 0 mm 1 mps 735 mmHg 72%
    10:00 +31°C° 0 mm 1 mps 735 mmHg 63%
    11:00 +32°C° 0.7 mm 1 mps 735 mmHg 62%
    12:00 +33°C° 0.7 mm 1 mps 734 mmHg 60%
    13:00 +33°C° 0 mm 1 mps 734 mmHg 62%
    14:00 +33°C° 0.2 mm 1 mps 734 mmHg 58%
    15:00 +34°C° 0.2 mm 1 mps 733 mmHg 55%
    16:00 +34°C° 0.2 mm 1 mps 733 mmHg 52%
    17:00 +32°C° 0.9 mm 1 mps 733 mmHg 64%
    18:00 +29°C° 0.9 mm 1 mps 734 mmHg 76%
    19:00 +27°C° 0.9 mm 1 mps 734 mmHg 89%
    20:00 +26°C° 0.3 mm 1 mps 734 mmHg 90%
    21:00 +26°C° 0.3 mm 1 mps 735 mmHg 91%
    22:00 +25°C° 0.3 mm 1 mps 736 mmHg 93%
    23:00 +25°C° 0 mm 1 mps 735 mmHg 93%

    Tomorrow, 23 January, Wednesday

    Time Temperature Precipitation Wind Pressure Humidity
    00:00 +25°C° 0 mm 1 mps 735 mmHg 94%
    01:00 +24°C° 0 mm 1 mps 735 mmHg 95%
    02:00 +24°C° 0 mm 1 mps 735 mmHg 96%
    03:00 +24°C° 0 mm 1 mps 735 mmHg 96%
    04:00 +24°C° 0 mm 1 mps 734 mmHg 97%
    05:00 +24°C° 0 mm 1 mps 735 mmHg 96%
    06:00 +24°C° 0 mm 1 mps 735 mmHg 95%
    07:00 +24°C° 0 mm 1 mps 735 mmHg 95%
    08:00 +27°C° 0 mm 1 mps 735 mmHg 84%
    09:00 +29°C° 0 mm 1 mps 736 mmHg 73%
    10:00 +31°C° 0 mm 1 mps 736 mmHg 63%
    11:00 +33°C° 0.1 mm 1 mps 735 mmHg 57%
    12:00 +34°C° 0.1 mm 1 mps 735 mmHg 52%
    13:00 +35°C° 0.1 mm 1 mps 734 mmHg 47%
    14:00 +35°C° 0.3 mm 1 mps 734 mmHg 49%
    15:00 +34°C° 0.3 mm 1 mps 733 mmHg 50%
    16:00 +34°C° 0.3 mm 1 mps 732 mmHg 52%
    17:00 +32°C° 0.5 mm 1 mps 733 mmHg 62%
    18:00 +29°C° 0.5 mm 1 mps 733 mmHg 73%
    19:00 +27°C° 0.5 mm 2 mps 733 mmHg 83%
    20:00 +27°C° 0 mm 1 mps 734 mmHg 86%
    21:00 +26°C° 0 mm 1 mps 735 mmHg 88%
    22:00 +26°C° 0 mm 1 mps 735 mmHg 90%
    23:00 +25°C° 0.1 mm 1 mps 735 mmHg 92%

    Day after tomorrow, 24 January, Thursday

    Time Temperature Precipitation Wind Pressure Humidity
    00:00 +25°C° 0.1 mm 1 mps 735 mmHg 93%
    01:00 +23°C° 0.1 mm 0 mps 735 mmHg 94%
    02:00 +23°C° 0 mm 0 mps 734 mmHg 94%
    03:00 +22°C° 0 mm 0 mps 734 mmHg 95%
    04:00 +22°C° 0 mm 0 mps 733 mmHg 95%
    05:00 +22°C° 0 mm 0 mps 733 mmHg 94%
    06:00 +23°C° 0 mm 0 mps 734 mmHg 93%
    07:00 +23°C° 0 mm 0 mps 734 mmHg 92%
    08:00 +26°C° 0 mm 0 mps 734 mmHg 80%
    09:00 +28°C° 0 mm 0 mps 735 mmHg 69%
    10:00 +33°C° 0 mm 1 mps 735 mmHg 57%
    11:00 +33°C° 0 mm 0 mps 734 mmHg 50%
    12:00 +35°C° 0 mm 0 mps 734 mmHg 44%
    13:00 +37°C° 0 mm 0 mps 733 mmHg 37%
    14:00 +37°C° 0 mm 0 mps 732 mmHg 37%
    15:00 +36°C° 0 mm 0 mps 731 mmHg 38%
    16:00 +35°C° 0 mm 0 mps 731 mmHg 38%
    17:00 +33°C° 0 mm 0 mps 731 mmHg 45%
    18:00 +33°C° 0 mm 1 mps 731 mmHg 51%
    19:00 +31°C° 0 mm 1 mps 731 mmHg 58%
    20:00 +30°C° 0.7 mm 1 mps 732 mmHg 66%
    21:00 +28°C° 0.7 mm 1 mps 733 mmHg 75%
    22:00 +27°C° 0.7 mm 1 mps 733 mmHg 84%
    23:00 +26°C° 0.9 mm 1 mps 733 mmHg 87%

    25 January, Friday

    Time Temperature Precipitation Wind Pressure Humidity
    00:00 +26°C° 0.9 mm 1 mps 733 mmHg 90%
    01:00 +25°C° 0.9 mm 1 mps 733 mmHg 93%
    02:00 +25°C° 0.5 mm 1 mps 733 mmHg 94%
    03:00 +25°C° 0.5 mm 1 mps 733 mmHg 95%
    04:00 +25°C° 0.5 mm 1 mps 733 mmHg 96%
    05:00 +25°C° 0 mm 1 mps 733 mmHg 96%
    06:00 +25°C° 0 mm 1 mps 734 mmHg 95%
    07:00 +25°C° 0 mm 1 mps 734 mmHg 95%
    08:00 +27°C° 0 mm 1 mps 734 mmHg 87%
    09:00 +28°C° 0 mm 1 mps 735 mmHg 79%
    10:00 +30°C° 0 mm 1 mps 735 mmHg 72%
    11:00 +31°C° 0 mm 1 mps 735 mmHg 66%
    12:00 +33°C° 0 mm 1 mps 734 mmHg 59%
    13:00 +34°C° 0 mm 1 mps 733 mmHg 53%
    14:00 +34°C° 0 mm 1 mps 733 mmHg 52%
    15:00 +34°C° 0 mm 1 mps 732 mmHg 52%
    16:00 +34°C° 0 mm 1 mps 731 mmHg 52%
    17:00 +33°C° 0 mm 1 mps 731 mmHg 58%
    18:00 +31°C° 0 mm 1 mps 732 mmHg 64%
    19:00 +30°C° 0 mm 1 mps 732 mmHg 71%
    20:00 +28°C° 0.8 mm 1 mps 733 mmHg 77%
    21:00 +27°C° 0.8 mm 1 mps 734 mmHg 84%
    22:00 +26°C° 0.8 mm 1 mps 734 mmHg 90%
    23:00 +26°C° 0.1 mm 1 mps 734 mmHg 90%

    26 January, Saturday

    Time Temperature Precipitation Wind Pressure Humidity
    00:00 +26°C° 0.1 mm 1 mps 734 mmHg 91%
    01:00 +25°C° 0.1 mm 2 mps 734 mmHg 91%
    02:00 +25°C° 0 mm 2 mps 733 mmHg 92%
    03:00 +25°C° 0 mm 1 mps 733 mmHg 93%
    04:00 +25°C° 0 mm 1 mps 733 mmHg 94%
    05:00 +25°C° 0 mm 1 mps 733 mmHg 94%
    06:00 +25°C° 0 mm 1 mps 734 mmHg 94%
    07:00 +25°C° 0 mm 1 mps 734 mmHg 94%
    08:00 +26°C° 0 mm 1 mps 735 mmHg 86%
    09:00 +28°C° 0 mm 1 mps 735 mmHg 79%
    10:00 +29°C° 0 mm 1 mps 736 mmHg 72%
    11:00 +31°C° 0.1 mm 1 mps 735 mmHg 66%
    12:00 +32°C° 0.1 mm 1 mps 734 mmHg 59%
    13:00 +34°C° 0.1 mm 1 mps 734 mmHg 53%
    14:00 +33°C° 1.6 mm 1 mps 733 mmHg 61%
    15:00 +32°C° 1.6 mm 1 mps 732 mmHg 69%
    16:00 +30°C° 1.6 mm 1 mps 732 mmHg 76%
    17:00 +29°C° 0.9 mm 1 mps 732 mmHg 81%
    18:00 +28°C° 0.9 mm 1 mps 733 mmHg 86%
    19:00 +27°C° 0.9 mm 1 mps 733 mmHg 91%
    20:00 +26°C° 0.4 mm 1 mps 734 mmHg 91%
    21:00 +26°C° 0.4 mm 1 mps 735 mmHg 91%
    22:00 +26°C° 0.4 mm 1 mps 735 mmHg 91%
    23:00 +25°C° 0.3 mm 1 mps 735 mmHg 92%

    27 January, Sunday

    Time Temperature Precipitation Wind Pressure Humidity
    00:00 +25°C° 0.3 mm 1 mps 735 mmHg 92%
    01:00 +25°C° 0.3 mm 1 mps 734 mmHg 93%
    02:00 +25°C° 0.1 mm 1 mps 734 mmHg 93%
    03:00 +24°C° 0.1 mm 1 mps 734 mmHg 93%
    04:00 +22°C° 0.1 mm 0 mps 733 mmHg 94%
    05:00 +22°C° 0 mm 0 mps 734 mmHg 94%
    06:00 +22°C° 0 mm 0 mps 734 mmHg 94%
    07:00 +22°C° 0 mm 0 mps 735 mmHg 93%
    08:00 +25°C° 0 mm 0 mps 735 mmHg 82%
    09:00 +28°C° 0 mm 0 mps 736 mmHg 71%
    10:00 +30°C° 0 mm 0 mps 736 mmHg 60%
    11:00 +33°C° 0 mm 1 mps 735 mmHg 57%
    12:00 +34°C° 0 mm 1 mps 734 mmHg 53%
    13:00 +34°C° 0 mm 1 mps 733 mmHg 50%
    14:00 +34°C° 0.7 mm 1 mps 733 mmHg 54%
    15:00 +33°C° 0.7 mm 1 mps 732 mmHg 58%
    16:00 +33°C° 0.7 mm 1 mps 732 mmHg 62%
    17:00 +31°C° 0.2 mm 1 mps 732 mmHg 69%
    18:00 +29°C° 0.2 mm 1 mps 733 mmHg 76%
    19:00 +28°C° 0.2 mm 1 mps 733 mmHg 83%
    20:00 +27°C° 0.7 mm 1 mps 734 mmHg 85%
    21:00 +27°C° 0.7 mm 1 mps 734 mmHg 87%
    22:00 +26°C° 0.7 mm 1 mps 735 mmHg 89%
    23:00 +26°C° 0.2 mm 1 mps 734 mmHg 90%
    Show more